Location: Nitra
(48.3167°N, 18.0833°E)
Time: 09:57:33
(UTC+02:00)

ISS - Visible Passes

Search period start: 19 October 2019 00:00
Search period end: 28 October 2019 23:00
Orbit: 411 x 421 km, 51.6° (Epoch: 19 October)

Date Brightness Start Highest point End Pass type
(mag) Time Alt. Az. Time Alt. Az. Time Alt. Az.
25 Oct -1.0 06:02:09 10° S 06:04:29 18° SE 06:06:49 10° E visible
26 Oct -0.7 05:15:01 10° SSE 05:16:06 11° SE 05:17:11 10° ESE visible
26 Oct -3.1 06:48:56 10° SW 06:52:14 57° SSE 06:55:34 10° ENE visible
27 Oct -2.4 05:00:51 12° SSW 05:03:42 38° SSE 05:06:52 10° ENE visible
28 Oct -1.9 04:14:43 24° SSE 04:15:12 25° SE 04:18:02 10° E visible
28 Oct -3.8 05:48:19 10° WSW 05:51:42 77° NNW 05:55:04 10° ENE visible
